owner,sensor,date,latitude,longitude,relative_humidity,qcFlag 
COMPS,ioos:station:USF.COMPS:TAR:1,2014-10-01T00:00:00Z,28.1560,-82.7580,82.78,1111122 
COMPS,ioos:station:USF.COMPS:TAR:1,2014-10-01T00:06:00Z,28.1560,-82.7580,83.15,1111122 
COMPS,ioos:station:USF.COMPS:TAR:1,2014-10-01T00:12:00Z,28.1560,-82.7580,83.76,1111122 
COMPS,ioos:station:USF.COMPS:TAR:1,2014-10-01T00:18:00Z,28.1560,-82.7580,83.14,1111122 
COMPS,ioos:station:USF.COMPS:TAR:1,2014-10-01T00:24:00Z,28.1560,-82.7580,83.22,1111122 
COMPS,ioos:station:USF.COMPS:TAR:1,2014-10-01T00:30:00Z,28.1560,-82.7580,83.56,1111122 
COMPS,ioos:station:USF.COMPS:TAR:1,2014-10-01T00:36:00Z,28.1560,-82.7580,83.85,1111122 
COMPS,ioos:station:USF.COMPS:TAR:1,2014-10-01T00:42:00Z,28.1560,-82.7580,83.66,1111122 
COMPS,ioos:station:USF.COMPS:TAR:1,2014-10-01T00:48:00Z,28.1560,-82.7580,83.59,1111122 
COMPS,ioos:station:USF.COMPS:TAR:1,2014-10-01T00:54:00Z,28.1560,-82.7580,84.09,1111122 
COMPS,ioos:station:USF.COMPS:TAR:1,2014-10-01T01:00:00Z,28.1560,-82.7580,84.64,1111122 
COMPS,ioos:station:USF.COMPS:TAR:1,2014-10-01T01:06:00Z,28.1560,-82.7580,84.92,1111122 
COMPS,ioos:station:USF.COMPS:TAR:1,2014-10-01T01:12:00Z,28.1560,-82.7580,85.52,1111122 
COMPS,ioos:station:USF.COMPS:TAR:1,2014-10-01T01:18:00Z,28.1560,-82.7580,85.88,1111122 
COMPS,ioos:station:USF.COMPS:TAR:1,2014-10-01T01:24:00Z,28.1560,-82.7580,86.17,1111122 
COMPS,ioos:station:USF.COMPS:TAR:1,2014-10-01T01:30:00Z,28.1560,-82.7580,86.11,1111122 
COMPS,ioos:station:USF.COMPS:TAR:1,2014-10-01T01:36:00Z,28.1560,-82.7580,85.78,1111122 
COMPS,ioos:station:USF.COMPS:TAR:1,2014-10-01T01:42:00Z,28.1560,-82.7580,85.59,1111122 
COMPS,ioos:station:USF.COMPS:TAR:1,2014-10-01T01:48:00Z,28.1560,-82.7580,85.61,1111122 
COMPS,ioos:station:USF.COMPS:TAR:1,2014-10-01T01:54:00Z,28.1560,-82.7580,86.39,1111122 
COMPS,ioos:station:USF.COMPS:TAR:1,2014-10-01T02:00:00Z,28.1560,-82.7580,87.59,1111122 
COMPS,ioos:station:USF.COMPS:TAR:1,2014-10-01T02:06:00Z,28.1560,-82.7580,88.69,1111122 
COMPS,ioos:station:USF.COMPS:TAR:1,2014-10-01T02:12:00Z,28.1560,-82.7580,89.22,1111122 
COMPS,ioos:station:USF.COMPS:TAR:1,2014-10-01T02:18:00Z,28.1560,-82.7580,89.57,1111122 
COMPS,ioos:station:USF.COMPS:TAR:1,2014-10-01T02:24:00Z,28.1560,-82.7580,89.59,1111122 
COMPS,ioos:station:USF.COMPS:TAR:1,2014-10-01T02:30:00Z,28.1560,-82.7580,89.76,1111122 
COMPS,ioos:station:USF.COMPS:TAR:1,2014-10-01T02:36:00Z,28.1560,-82.7580,89.68,1111122 
COMPS,ioos:station:USF.COMPS:TAR:1,2014-10-01T02:42:00Z,28.1560,-82.7580,89.79,1111122 
COMPS,ioos:station:USF.COMPS:TAR:1,2014-10-01T02:48:00Z,28.1560,-82.7580,90.46,1111122 
COMPS,ioos:station:USF.COMPS:TAR:1,2014-10-01T02:54:00Z,28.1560,-82.7580,91.04,1111122 
COMPS,ioos:station:USF.COMPS:TAR:1,2014-10-01T03:00:00Z,28.1560,-82.7580,91.4,1111122 
COMPS,ioos:station:USF.COMPS:TAR:1,2014-10-01T03:06:00Z,28.1560,-82.7580,91.64,1111122 
COMPS,ioos:station:USF.COMPS:TAR:1,2014-10-01T03:12:00Z,28.1560,-82.7580,91.96,1111122 
COMPS,ioos:station:USF.COMPS:TAR:1,2014-10-01T03:18:00Z,28.1560,-82.7580,92.24,1111122 
COMPS,ioos:station:USF.COMPS:TAR:1,2014-10-01T03:24:00Z,28.1560,-82.7580,92.37,1111122 
COMPS,ioos:station:USF.COMPS:TAR:1,2014-10-01T03:30:00Z,28.1560,-82.7580,92.4,1111122 
COMPS,ioos:station:USF.COMPS:TAR:1,2014-10-01T03:36:00Z,28.1560,-82.7580,92.49,1111122 
COMPS,ioos:station:USF.COMPS:TAR:1,2014-10-01T03:42:00Z,28.1560,-82.7580,92.67,1111122 
COMPS,ioos:station:USF.COMPS:TAR:1,2014-10-01T03:48:00Z,28.1560,-82.7580,92.77,1111122 
COMPS,ioos:station:USF.COMPS:TAR:1,2014-10-01T03:54:00Z,28.1560,-82.7580,92.99,1111122 
COMPS,ioos:station:USF.COMPS:TAR:1,2014-10-01T04:00:00Z,28.1560,-82.7580,93.47,1111122 
COMPS,ioos:station:USF.COMPS:TAR:1,2014-10-01T04:06:00Z,28.1560,-82.7580,93.75,1111122 
COMPS,ioos:station:USF.COMPS:TAR:1,2014-10-01T04:12:00Z,28.1560,-82.7580,93.88,1111122 
COMPS,ioos:station:USF.COMPS:TAR:1,2014-10-01T04:18:00Z,28.1560,-82.7580,94.02,1111122 
COMPS,ioos:station:USF.COMPS:TAR:1,2014-10-01T04:24:00Z,28.1560,-82.7580,94.12,1111122 
COMPS,ioos:station:USF.COMPS:TAR:1,2014-10-01T04:30:00Z,28.1560,-82.7580,94.09,1111122 
COMPS,ioos:station:USF.COMPS:TAR:1,2014-10-01T04:36:00Z,28.1560,-82.7580,94.04,1111122 
COMPS,ioos:station:USF.COMPS:TAR:1,2014-10-01T04:42:00Z,28.1560,-82.7580,93.88,1111122 
COMPS,ioos:station:USF.COMPS:TAR:1,2014-10-01T04:48:00Z,28.1560,-82.7580,93.71,1111122 
COMPS,ioos:station:USF.COMPS:TAR:1,2014-10-01T04:54:00Z,28.1560,-82.7580,93.53,1111122 
COMPS,ioos:station:USF.COMPS:TAR:1,2014-10-01T05:00:00Z,28.1560,-82.7580,93.42,1111122 
COMPS,ioos:station:USF.COMPS:TAR:1,2014-10-01T05:06:00Z,28.1560,-82.7580,93.39,1111122 
COMPS,ioos:station:USF.COMPS:TAR:1,2014-10-01T05:12:00Z,28.1560,-82.7580,93.35,1111122 
COMPS,ioos:station:USF.COMPS:TAR:1,2014-10-01T05:18:00Z,28.1560,-82.7580,93.33,1111122 
COMPS,ioos:station:USF.COMPS:TAR:1,2014-10-01T05:24:00Z,28.1560,-82.7580,93.32,1111122 
COMPS,ioos:station:USF.COMPS:TAR:1,2014-10-01T05:30:00Z,28.1560,-82.7580,93.37,1111122 
COMPS,ioos:station:USF.COMPS:TAR:1,2014-10-01T05:36:00Z,28.1560,-82.7580,93.46,1111122 
COMPS,ioos:station:USF.COMPS:TAR:1,2014-10-01T05:42:00Z,28.1560,-82.7580,93.52,1111122 
COMPS,ioos:station:USF.COMPS:TAR:1,2014-10-01T05:48:00Z,28.1560,-82.7580,93.59,1111122 
COMPS,ioos:station:USF.COMPS:TAR:1,2014-10-01T05:54:00Z,28.1560,-82.7580,93.68,1111122 
COMPS,ioos:station:USF.COMPS:TAR:1,2014-10-01T06:00:00Z,28.1560,-82.7580,93.67,1111122 
COMPS,ioos:station:USF.COMPS:TAR:1,2014-10-01T06:06:00Z,28.1560,-82.7580,93.68,1111122 
COMPS,ioos:station:USF.COMPS:TAR:1,2014-10-01T06:12:00Z,28.1560,-82.7580,93.69,1111122 
COMPS,ioos:station:USF.COMPS:TAR:1,2014-10-01T06:18:00Z,28.1560,-82.7580,93.68,1111122 
COMPS,ioos:station:USF.COMPS:TAR:1,2014-10-01T06:24:00Z,28.1560,-82.7580,93.67,1111122 
COMPS,ioos:station:USF.COMPS:TAR:1,2014-10-01T06:30:00Z,28.1560,-82.7580,93.72,1111122 
COMPS,ioos:station:USF.COMPS:TAR:1,2014-10-01T06:36:00Z,28.1560,-82.7580,93.78,1111122 
COMPS,ioos:station:USF.COMPS:TAR:1,2014-10-01T06:42:00Z,28.1560,-82.7580,93.81,1111122 
COMPS,ioos:station:USF.COMPS:TAR:1,2014-10-01T06:48:00Z,28.1560,-82.7580,93.84,1111122 
COMPS,ioos:station:USF.COMPS:TAR:1,2014-10-01T06:54:00Z,28.1560,-82.7580,93.83,1111122 
COMPS,ioos:station:USF.COMPS:TAR:1,2014-10-01T07:00:00Z,28.1560,-82.7580,93.87,1111122 
COMPS,ioos:station:USF.COMPS:TAR:1,2014-10-01T07:06:00Z,28.1560,-82.7580,93.87,1111122 
COMPS,ioos:station:USF.COMPS:TAR:1,2014-10-01T07:12:00Z,28.1560,-82.7580,93.84,1111122 
COMPS,ioos:station:USF.COMPS:TAR:1,2014-10-01T07:18:00Z,28.1560,-82.7580,93.82,1111122 
COMPS,ioos:station:USF.COMPS:TAR:1,2014-10-01T07:24:00Z,28.1560,-82.7580,93.79,1111122 
COMPS,ioos:station:USF.COMPS:TAR:1,2014-10-01T07:30:00Z,28.1560,-82.7580,93.76,1111122 
COMPS,ioos:station:USF.COMPS:TAR:1,2014-10-01T07:36:00Z,28.1560,-82.7580,93.77,1111122 
COMPS,ioos:station:USF.COMPS:TAR:1,2014-10-01T07:42:00Z,28.1560,-82.7580,93.71,1111122 
COMPS,ioos:station:USF.COMPS:TAR:1,2014-10-01T07:48:00Z,28.1560,-82.7580,93.63,1111122 
COMPS,ioos:station:USF.COMPS:TAR:1,2014-10-01T07:54:00Z,28.1560,-82.7580,93.53,1111122 
COMPS,ioos:station:USF.COMPS:TAR:1,2014-10-01T08:00:00Z,28.1560,-82.7580,93.5,1111122 
COMPS,ioos:station:USF.COMPS:TAR:1,2014-10-01T08:06:00Z,28.1560,-82.7580,93.46,1111122 
COMPS,ioos:station:USF.COMPS:TAR:1,2014-10-01T08:12:00Z,28.1560,-82.7580,93.4,1111122 
COMPS,ioos:station:USF.COMPS:TAR:1,2014-10-01T08:18:00Z,28.1560,-82.7580,93.44,1111122 
COMPS,ioos:station:USF.COMPS:TAR:1,2014-10-01T08:24:00Z,28.1560,-82.7580,93.51,1111122 
COMPS,ioos:station:USF.COMPS:TAR:1,2014-10-01T08:30:00Z,28.1560,-82.7580,93.37,1111122 
COMPS,ioos:station:USF.COMPS:TAR:1,2014-10-01T08:36:00Z,28.1560,-82.7580,93.16,1111122 
COMPS,ioos:station:USF.COMPS:TAR:1,2014-10-01T08:42:00Z,28.1560,-82.7580,93.03,1111122 
COMPS,ioos:station:USF.COMPS:TAR:1,2014-10-01T08:48:00Z,28.1560,-82.7580,92.91,1111122 
COMPS,ioos:station:USF.COMPS:TAR:1,2014-10-01T08:54:00Z,28.1560,-82.7580,92.85,1111122 
COMPS,ioos:station:USF.COMPS:TAR:1,2014-10-01T09:00:00Z,28.1560,-82.7580,92.9,1111122 
COMPS,ioos:station:USF.COMPS:TAR:1,2014-10-01T09:06:00Z,28.1560,-82.7580,92.92,1111122 
COMPS,ioos:station:USF.COMPS:TAR:1,2014-10-01T09:12:00Z,28.1560,-82.7580,92.89,1111122 
COMPS,ioos:station:USF.COMPS:TAR:1,2014-10-01T09:18:00Z,28.1560,-82.7580,92.89,1111122 
COMPS,ioos:station:USF.COMPS:TAR:1,2014-10-01T09:24:00Z,28.1560,-82.7580,92.86,1111122 
COMPS,ioos:station:USF.COMPS:TAR:1,2014-10-01T09:30:00Z,28.1560,-82.7580,92.76,1111122 
COMPS,ioos:station:USF.COMPS:TAR:1,2014-10-01T09:36:00Z,28.1560,-82.7580,92.75,1111122 
COMPS,ioos:station:USF.COMPS:TAR:1,2014-10-01T09:42:00Z,28.1560,-82.7580,92.77,1111122 
COMPS,ioos:station:USF.COMPS:TAR:1,2014-10-01T09:48:00Z,28.1560,-82.7580,92.72,1111122 
COMPS,ioos:station:USF.COMPS:TAR:1,2014-10-01T09:54:00Z,28.1560,-82.7580,92.52,1111122 
COMPS,ioos:station:USF.COMPS:TAR:1,2014-10-01T10:00:00Z,28.1560,-82.7580,92.47,1111122 
COMPS,ioos:station:USF.COMPS:TAR:1,2014-10-01T10:06:00Z,28.1560,-82.7580,92.39,1111122 
COMPS,ioos:station:USF.COMPS:TAR:1,2014-10-01T10:12:00Z,28.1560,-82.7580,92.36,1111122 
COMPS,ioos:station:USF.COMPS:TAR:1,2014-10-01T10:18:00Z,28.1560,-82.7580,92.34,1111122 
COMPS,ioos:station:USF.COMPS:TAR:1,2014-10-01T10:24:00Z,28.1560,-82.7580,92.32,1111122 
COMPS,ioos:station:USF.COMPS:TAR:1,2014-10-01T10:30:00Z,28.1560,-82.7580,92.26,1111122 
COMPS,ioos:station:USF.COMPS:TAR:1,2014-10-01T10:36:00Z,28.1560,-82.7580,92.23,1111122 
COMPS,ioos:station:USF.COMPS:TAR:1,2014-10-01T10:42:00Z,28.1560,-82.7580,92.25,1111122 
COMPS,ioos:station:USF.COMPS:TAR:1,2014-10-01T10:48:00Z,28.1560,-82.7580,92.17,1111122 
COMPS,ioos:station:USF.COMPS:TAR:1,2014-10-01T10:54:00Z,28.1560,-82.7580,92.13,1111122 
COMPS,ioos:station:USF.COMPS:TAR:1,2014-10-01T11:00:00Z,28.1560,-82.7580,92.19,1111122 
COMPS,ioos:station:USF.COMPS:TAR:1,2014-10-01T11:06:00Z,28.1560,-82.7580,92.18,1111122 
COMPS,ioos:station:USF.COMPS:TAR:1,2014-10-01T11:12:00Z,28.1560,-82.7580,92.22,1111122 
COMPS,ioos:station:USF.COMPS:TAR:1,2014-10-01T11:18:00Z,28.1560,-82.7580,92.19,1111122 
COMPS,ioos:station:USF.COMPS:TAR:1,2014-10-01T11:24:00Z,28.1560,-82.7580,92.22,1111122 
COMPS,ioos:station:USF.COMPS:TAR:1,2014-10-01T11:30:00Z,28.1560,-82.7580,92.32,1111122 
COMPS,ioos:station:USF.COMPS:TAR:1,2014-10-01T11:36:00Z,28.1560,-82.7580,92.43,1111122 
COMPS,ioos:station:USF.COMPS:TAR:1,2014-10-01T11:42:00Z,28.1560,-82.7580,92.46,1111122 
COMPS,ioos:station:USF.COMPS:TAR:1,2014-10-01T11:48:00Z,28.1560,-82.7580,92.55,1111122 
COMPS,ioos:station:USF.COMPS:TAR:1,2014-10-01T11:54:00Z,28.1560,-82.7580,92.53,1111122 
COMPS,ioos:station:USF.COMPS:TAR:1,2014-10-01T12:00:00Z,28.1560,-82.7580,92.42,1111122 
COMPS,ioos:station:USF.COMPS:TAR:1,2014-10-01T12:06:00Z,28.1560,-82.7580,92.3,1111122 
COMPS,ioos:station:USF.COMPS:TAR:1,2014-10-01T12:12:00Z,28.1560,-82.7580,92.21,1111122 
COMPS,ioos:station:USF.COMPS:TAR:1,2014-10-01T12:18:00Z,28.1560,-82.7580,91.93,1111122 
COMPS,ioos:station:USF.COMPS:TAR:1,2014-10-01T12:24:00Z,28.1560,-82.7580,90.47,1111122 
COMPS,ioos:station:USF.COMPS:TAR:1,2014-10-01T12:30:00Z,28.1560,-82.7580,88.76,1111122 
COMPS,ioos:station:USF.COMPS:TAR:1,2014-10-01T12:36:00Z,28.1560,-82.7580,88.67,1111122 
COMPS,ioos:station:USF.COMPS:TAR:1,2014-10-01T12:42:00Z,28.1560,-82.7580,87.6,1111122 
COMPS,ioos:station:USF.COMPS:TAR:1,2014-10-01T12:48:00Z,28.1560,-82.7580,87.4,1111122 
COMPS,ioos:station:USF.COMPS:TAR:1,2014-10-01T12:54:00Z,28.1560,-82.7580,86.94,1111122 
COMPS,ioos:station:USF.COMPS:TAR:1,2014-10-01T13:00:00Z,28.1560,-82.7580,87.22,1111122 
COMPS,ioos:station:USF.COMPS:TAR:1,2014-10-01T13:06:00Z,28.1560,-82.7580,87.58,1111122 
COMPS,ioos:station:USF.COMPS:TAR:1,2014-10-01T13:12:00Z,28.1560,-82.7580,87.04,1111122 
COMPS,ioos:station:USF.COMPS:TAR:1,2014-10-01T13:18:00Z,28.1560,-82.7580,84.89,1111122 
COMPS,ioos:station:USF.COMPS:TAR:1,2014-10-01T13:24:00Z,28.1560,-82.7580,79.74,1111122 
COMPS,ioos:station:USF.COMPS:TAR:1,2014-10-01T13:30:00Z,28.1560,-82.7580,77.59,1111122 
COMPS,ioos:station:USF.COMPS:TAR:1,2014-10-01T13:36:00Z,28.1560,-82.7580,80.0,1111122 
COMPS,ioos:station:USF.COMPS:TAR:1,2014-10-01T13:42:00Z,28.1560,-82.7580,81.06,1111122 
COMPS,ioos:station:USF.COMPS:TAR:1,2014-10-01T13:48:00Z,28.1560,-82.7580,83.29,1111122 
COMPS,ioos:station:USF.COMPS:TAR:1,2014-10-01T13:54:00Z,28.1560,-82.7580,83.84,1111122 
COMPS,ioos:station:USF.COMPS:TAR:1,2014-10-01T14:00:00Z,28.1560,-82.7580,83.48,1111122 
COMPS,ioos:station:USF.COMPS:TAR:1,2014-10-01T14:06:00Z,28.1560,-82.7580,81.91,1111122 
COMPS,ioos:station:USF.COMPS:TAR:1,2014-10-01T14:12:00Z,28.1560,-82.7580,81.43,1111122 
COMPS,ioos:station:USF.COMPS:TAR:1,2014-10-01T14:18:00Z,28.1560,-82.7580,81.92,1111122 
COMPS,ioos:station:USF.COMPS:TAR:1,2014-10-01T14:24:00Z,28.1560,-82.7580,82.08,1111122 
COMPS,ioos:station:USF.COMPS:TAR:1,2014-10-01T14:30:00Z,28.1560,-82.7580,81.75,1111122 
COMPS,ioos:station:USF.COMPS:TAR:1,2014-10-01T14:36:00Z,28.1560,-82.7580,81.3,1111122 
COMPS,ioos:station:USF.COMPS:TAR:1,2014-10-01T14:42:00Z,28.1560,-82.7580,80.43,1111122 
COMPS,ioos:station:USF.COMPS:TAR:1,2014-10-01T14:48:00Z,28.1560,-82.7580,79.66,1111122 
COMPS,ioos:station:USF.COMPS:TAR:1,2014-10-01T14:54:00Z,28.1560,-82.7580,80.03,1111122 
COMPS,ioos:station:USF.COMPS:TAR:1,2014-10-01T15:00:00Z,28.1560,-82.7580,80.93,1111122 
COMPS,ioos:station:USF.COMPS:TAR:1,2014-10-01T15:06:00Z,28.1560,-82.7580,80.35,1111122 
COMPS,ioos:station:USF.COMPS:TAR:1,2014-10-01T15:12:00Z,28.1560,-82.7580,77.48,1111122 
COMPS,ioos:station:USF.COMPS:TAR:1,2014-10-01T15:18:00Z,28.1560,-82.7580,77.29,1111122 
COMPS,ioos:station:USF.COMPS:TAR:1,2014-10-01T15:24:00Z,28.1560,-82.7580,74.48,1111122 
COMPS,ioos:station:USF.COMPS:TAR:1,2014-10-01T15:30:00Z,28.1560,-82.7580,70.14,1111122 
COMPS,ioos:station:USF.COMPS:TAR:1,2014-10-01T15:36:00Z,28.1560,-82.7580,69.14,1111122 
COMPS,ioos:station:USF.COMPS:TAR:1,2014-10-01T15:42:00Z,28.1560,-82.7580,68.62,1111122 
COMPS,ioos:station:USF.COMPS:TAR:1,2014-10-01T15:48:00Z,28.1560,-82.7580,68.39,1111122 
COMPS,ioos:station:USF.COMPS:TAR:1,2014-10-01T15:54:00Z,28.1560,-82.7580,64.72,1111122 
COMPS,ioos:station:USF.COMPS:TAR:1,2014-10-01T16:00:00Z,28.1560,-82.7580,63.15,1111122 
COMPS,ioos:station:USF.COMPS:TAR:1,2014-10-01T16:06:00Z,28.1560,-82.7580,65.67,1111122 
COMPS,ioos:station:USF.COMPS:TAR:1,2014-10-01T16:12:00Z,28.1560,-82.7580,67.93,1111122 
COMPS,ioos:station:USF.COMPS:TAR:1,2014-10-01T16:18:00Z,28.1560,-82.7580,66.7,1111122 
COMPS,ioos:station:USF.COMPS:TAR:1,2014-10-01T16:24:00Z,28.1560,-82.7580,65.0,1111122 
COMPS,ioos:station:USF.COMPS:TAR:1,2014-10-01T16:30:00Z,28.1560,-82.7580,63.69,1111122 
COMPS,ioos:station:USF.COMPS:TAR:1,2014-10-01T16:36:00Z,28.1560,-82.7580,59.94,1111122 
COMPS,ioos:station:USF.COMPS:TAR:1,2014-10-01T16:42:00Z,28.1560,-82.7580,59.53,1111122 
COMPS,ioos:station:USF.COMPS:TAR:1,2014-10-01T16:48:00Z,28.1560,-82.7580,59.65,1111122 
COMPS,ioos:station:USF.COMPS:TAR:1,2014-10-01T16:54:00Z,28.1560,-82.7580,58.25,1111122 
COMPS,ioos:station:USF.COMPS:TAR:1,2014-10-01T17:00:00Z,28.1560,-82.7580,56.44,1111122 
COMPS,ioos:station:USF.COMPS:TAR:1,2014-10-01T17:06:00Z,28.1560,-82.7580,55.56,1111122 
COMPS,ioos:station:USF.COMPS:TAR:1,2014-10-01T17:12:00Z,28.1560,-82.7580,54.8,1111122 
COMPS,ioos:station:USF.COMPS:TAR:1,2014-10-01T17:18:00Z,28.1560,-82.7580,55.59,1111122 
COMPS,ioos:station:USF.COMPS:TAR:1,2014-10-01T17:24:00Z,28.1560,-82.7580,56.01,1111122 
COMPS,ioos:station:USF.COMPS:TAR:1,2014-10-01T17:30:00Z,28.1560,-82.7580,55.27,1111122 
COMPS,ioos:station:USF.COMPS:TAR:1,2014-10-01T17:36:00Z,28.1560,-82.7580,54.54,1111122 
COMPS,ioos:station:USF.COMPS:TAR:1,2014-10-01T17:42:00Z,28.1560,-82.7580,52.63,1111122 
COMPS,ioos:station:USF.COMPS:TAR:1,2014-10-01T17:48:00Z,28.1560,-82.7580,51.83,1111122 
COMPS,ioos:station:USF.COMPS:TAR:1,2014-10-01T17:54:00Z,28.1560,-82.7580,51.4,1111122 
COMPS,ioos:station:USF.COMPS:TAR:1,2014-10-01T18:00:00Z,28.1560,-82.7580,50.22,1111122 
COMPS,ioos:station:USF.COMPS:TAR:1,2014-10-01T18:06:00Z,28.1560,-82.7580,50.43,1111122 
COMPS,ioos:station:USF.COMPS:TAR:1,2014-10-01T18:12:00Z,28.1560,-82.7580,49.13,1111122 
COMPS,ioos:station:USF.COMPS:TAR:1,2014-10-01T18:18:00Z,28.1560,-82.7580,49.53,1111122 
COMPS,ioos:station:USF.COMPS:TAR:1,2014-10-01T18:24:00Z,28.1560,-82.7580,49.59,1111122 
COMPS,ioos:station:USF.COMPS:TAR:1,2014-10-01T18:30:00Z,28.1560,-82.7580,49.29,1111122 
COMPS,ioos:station:USF.COMPS:TAR:1,2014-10-01T18:36:00Z,28.1560,-82.7580,48.69,1111122 
COMPS,ioos:station:USF.COMPS:TAR:1,2014-10-01T18:42:00Z,28.1560,-82.7580,49.46,1111122 
COMPS,ioos:station:USF.COMPS:TAR:1,2014-10-01T18:48:00Z,28.1560,-82.7580,51.72,1111122 
COMPS,ioos:station:USF.COMPS:TAR:1,2014-10-01T18:54:00Z,28.1560,-82.7580,52.11,1111122 
COMPS,ioos:station:USF.COMPS:TAR:1,2014-10-01T19:00:00Z,28.1560,-82.7580,51.18,1111122 
COMPS,ioos:station:USF.COMPS:TAR:1,2014-10-01T19:06:00Z,28.1560,-82.7580,50.73,1111122 
COMPS,ioos:station:USF.COMPS:TAR:1,2014-10-01T19:12:00Z,28.1560,-82.7580,49.46,1111122 
COMPS,ioos:station:USF.COMPS:TAR:1,2014-10-01T19:18:00Z,28.1560,-82.7580,49.88,1111122 
COMPS,ioos:station:USF.COMPS:TAR:1,2014-10-01T19:24:00Z,28.1560,-82.7580,49.56,1111122 
COMPS,ioos:station:USF.COMPS:TAR:1,2014-10-01T19:30:00Z,28.1560,-82.7580,50.02,1111122 
COMPS,ioos:station:USF.COMPS:TAR:1,2014-10-01T19:36:00Z,28.1560,-82.7580,50.78,1111122 
COMPS,ioos:station:USF.COMPS:TAR:1,2014-10-01T19:42:00Z,28.1560,-82.7580,52.47,1111122 
COMPS,ioos:station:USF.COMPS:TAR:1,2014-10-01T19:48:00Z,28.1560,-82.7580,52.1,1111122 
COMPS,ioos:station:USF.COMPS:TAR:1,2014-10-01T19:54:00Z,28.1560,-82.7580,52.32,1111122 
COMPS,ioos:station:USF.COMPS:TAR:1,2014-10-01T20:00:00Z,28.1560,-82.7580,52.86,1111122 
COMPS,ioos:station:USF.COMPS:TAR:1,2014-10-01T20:06:00Z,28.1560,-82.7580,54.3,1111122 
COMPS,ioos:station:USF.COMPS:TAR:1,2014-10-01T20:12:00Z,28.1560,-82.7580,56.27,1111122 
COMPS,ioos:station:USF.COMPS:TAR:1,2014-10-01T20:18:00Z,28.1560,-82.7580,57.53,1111122 
COMPS,ioos:station:USF.COMPS:TAR:1,2014-10-01T20:24:00Z,28.1560,-82.7580,57.68,1111122 
COMPS,ioos:station:USF.COMPS:TAR:1,2014-10-01T20:30:00Z,28.1560,-82.7580,59.06,1111122 
COMPS,ioos:station:USF.COMPS:TAR:1,2014-10-01T20:36:00Z,28.1560,-82.7580,59.81,1111122 
COMPS,ioos:station:USF.COMPS:TAR:1,2014-10-01T20:42:00Z,28.1560,-82.7580,60.94,1111122 
COMPS,ioos:station:USF.COMPS:TAR:1,2014-10-01T20:48:00Z,28.1560,-82.7580,60.41,1111122 
COMPS,ioos:station:USF.COMPS:TAR:1,2014-10-01T20:54:00Z,28.1560,-82.7580,61.03,1111122 
COMPS,ioos:station:USF.COMPS:TAR:1,2014-10-01T21:00:00Z,28.1560,-82.7580,60.49,1111122 
COMPS,ioos:station:USF.COMPS:TAR:1,2014-10-01T21:06:00Z,28.1560,-82.7580,60.57,1111122 
COMPS,ioos:station:USF.COMPS:TAR:1,2014-10-01T21:12:00Z,28.1560,-82.7580,59.86,1111122 
COMPS,ioos:station:USF.COMPS:TAR:1,2014-10-01T21:18:00Z,28.1560,-82.7580,60.47,1111122 
COMPS,ioos:station:USF.COMPS:TAR:1,2014-10-01T21:24:00Z,28.1560,-82.7580,62.75,1111122 
COMPS,ioos:station:USF.COMPS:TAR:1,2014-10-01T21:30:00Z,28.1560,-82.7580,62.6,1111122 
COMPS,ioos:station:USF.COMPS:TAR:1,2014-10-01T21:36:00Z,28.1560,-82.7580,63.31,1111122 
COMPS,ioos:station:USF.COMPS:TAR:1,2014-10-01T21:42:00Z,28.1560,-82.7580,63.89,1111122 
COMPS,ioos:station:USF.COMPS:TAR:1,2014-10-01T21:48:00Z,28.1560,-82.7580,65.86,1111122 
COMPS,ioos:station:USF.COMPS:TAR:1,2014-10-01T21:54:00Z,28.1560,-82.7580,66.41,1111122 
COMPS,ioos:station:USF.COMPS:TAR:1,2014-10-01T22:00:00Z,28.1560,-82.7580,67.39,1111122 
COMPS,ioos:station:USF.COMPS:TAR:1,2014-10-01T22:06:00Z,28.1560,-82.7580,69.22,1111122 
COMPS,ioos:station:USF.COMPS:TAR:1,2014-10-01T22:12:00Z,28.1560,-82.7580,70.63,1111122 
COMPS,ioos:station:USF.COMPS:TAR:1,2014-10-01T22:18:00Z,28.1560,-82.7580,70.92,1111122 
COMPS,ioos:station:USF.COMPS:TAR:1,2014-10-01T22:24:00Z,28.1560,-82.7580,69.54,1111122 
COMPS,ioos:station:USF.COMPS:TAR:1,2014-10-01T22:30:00Z,28.1560,-82.7580,69.51,1111122 
COMPS,ioos:station:USF.COMPS:TAR:1,2014-10-01T22:36:00Z,28.1560,-82.7580,71.24,1111122 
COMPS,ioos:station:USF.COMPS:TAR:1,2014-10-01T22:42:00Z,28.1560,-82.7580,72.32,1111122 
COMPS,ioos:station:USF.COMPS:TAR:1,2014-10-01T22:48:00Z,28.1560,-82.7580,73.63,1111122 
COMPS,ioos:station:USF.COMPS:TAR:1,2014-10-01T22:54:00Z,28.1560,-82.7580,74.99,1111122 
COMPS,ioos:station:USF.COMPS:TAR:1,2014-10-01T23:00:00Z,28.1560,-82.7580,76.49,1111122 
COMPS,ioos:station:USF.COMPS:TAR:1,2014-10-01T23:06:00Z,28.1560,-82.7580,77.87,1111122 
COMPS,ioos:station:USF.COMPS:TAR:1,2014-10-01T23:12:00Z,28.1560,-82.7580,78.64,1111122 
COMPS,ioos:station:USF.COMPS:TAR:1,2014-10-01T23:18:00Z,28.1560,-82.7580,79.64,1111122 
COMPS,ioos:station:USF.COMPS:TAR:1,2014-10-01T23:24:00Z,28.1560,-82.7580,80.18,1111122 
COMPS,ioos:station:USF.COMPS:TAR:1,2014-10-01T23:30:00Z,28.1560,-82.7580,80.71,1111122 
COMPS,ioos:station:USF.COMPS:TAR:1,2014-10-01T23:36:00Z,28.1560,-82.7580,81.1,1111122 
COMPS,ioos:station:USF.COMPS:TAR:1,2014-10-01T23:42:00Z,28.1560,-82.7580,81.1,1111122 
COMPS,ioos:station:USF.COMPS:TAR:1,2014-10-01T23:48:00Z,28.1560,-82.7580,81.22,1111122 
COMPS,ioos:station:USF.COMPS:TAR:1,2014-10-01T23:54:00Z,28.1560,-82.7580,81.6,1111122 
COMPS,ioos:station:USF.COMPS:TAR:1,2014-10-02T00:00:00Z,28.1560,-82.7580,81.91,1111122 
COMPS,ioos:station:USF.COMPS:TAR:1,2014-10-02T00:06:00Z,28.1560,-82.7580,82.26,1111122 
COMPS,ioos:station:USF.COMPS:TAR:1,2014-10-02T00:12:00Z,28.1560,-82.7580,82.66,1111122 
COMPS,ioos:station:USF.COMPS:TAR:1,2014-10-02T00:18:00Z,28.1560,-82.7580,82.9,1111122 
COMPS,ioos:station:USF.COMPS:TAR:1,2014-10-02T00:24:00Z,28.1560,-82.7580,83.05,1111122 
COMPS,ioos:station:USF.COMPS:TAR:1,2014-10-02T00:30:00Z,28.1560,-82.7580,82.88,1111122 
COMPS,ioos:station:USF.COMPS:TAR:1,2014-10-02T00:36:00Z,28.1560,-82.7580,82.87,1111122 
COMPS,ioos:station:USF.COMPS:TAR:1,2014-10-02T00:42:00Z,28.1560,-82.7580,82.85,1111122 
COMPS,ioos:station:USF.COMPS:TAR:1,2014-10-02T00:48:00Z,28.1560,-82.7580,83.07,1111122 
COMPS,ioos:station:USF.COMPS:TAR:1,2014-10-02T00:54:00Z,28.1560,-82.7580,83.13,1111122 
COMPS,ioos:station:USF.COMPS:TAR:1,2014-10-02T01:00:00Z,28.1560,-82.7580,82.95,1111122 
COMPS,ioos:station:USF.COMPS:TAR:1,2014-10-02T01:06:00Z,28.1560,-82.7580,83.03,1111122 
COMPS,ioos:station:USF.COMPS:TAR:1,2014-10-02T01:12:00Z,28.1560,-82.7580,83.0,1111122 
COMPS,ioos:station:USF.COMPS:TAR:1,2014-10-02T01:18:00Z,28.1560,-82.7580,83.06,1111122 
COMPS,ioos:station:USF.COMPS:TAR:1,2014-10-02T01:24:00Z,28.1560,-82.7580,83.05,1111122 
COMPS,ioos:station:USF.COMPS:TAR:1,2014-10-02T01:30:00Z,28.1560,-82.7580,82.82,1111122 
COMPS,ioos:station:USF.COMPS:TAR:1,2014-10-02T01:36:00Z,28.1560,-82.7580,82.92,1111122 
COMPS,ioos:station:USF.COMPS:TAR:1,2014-10-02T01:42:00Z,28.1560,-82.7580,83.01,1111122 
COMPS,ioos:station:USF.COMPS:TAR:1,2014-10-02T01:48:00Z,28.1560,-82.7580,83.39,1111122 
COMPS,ioos:station:USF.COMPS:TAR:1,2014-10-02T01:54:00Z,28.1560,-82.7580,83.58,1111122 
COMPS,ioos:station:USF.COMPS:TAR:1,2014-10-02T02:00:00Z,28.1560,-82.7580,83.65,1111122 
COMPS,ioos:station:USF.COMPS:TAR:1,2014-10-02T02:06:00Z,28.1560,-82.7580,83.65,1111122 
COMPS,ioos:station:USF.COMPS:TAR:1,2014-10-02T02:12:00Z,28.1560,-82.7580,83.68,1111122 
COMPS,ioos:station:USF.COMPS:TAR:1,2014-10-02T02:18:00Z,28.1560,-82.7580,83.81,1111122 
COMPS,ioos:station:USF.COMPS:TAR:1,2014-10-02T02:24:00Z,28.1560,-82.7580,83.91,1111122 
COMPS,ioos:station:USF.COMPS:TAR:1,2014-10-02T02:30:00Z,28.1560,-82.7580,84.08,1111122 
COMPS,ioos:station:USF.COMPS:TAR:1,2014-10-02T02:36:00Z,28.1560,-82.7580,84.38,1111122 
COMPS,ioos:station:USF.COMPS:TAR:1,2014-10-02T02:42:00Z,28.1560,-82.7580,84.99,1111122 
COMPS,ioos:station:USF.COMPS:TAR:1,2014-10-02T02:48:00Z,28.1560,-82.7580,85.34,1111122 
COMPS,ioos:station:USF.COMPS:TAR:1,2014-10-02T02:54:00Z,28.1560,-82.7580,85.54,1111122 
COMPS,ioos:station:USF.COMPS:TAR:1,2014-10-02T03:00:00Z,28.1560,-82.7580,85.82,1111122 
COMPS,ioos:station:USF.COMPS:TAR:1,2014-10-02T03:06:00Z,28.1560,-82.7580,85.7,1111122 